www.pogodaiklimat.ru

Погода и климат >> Архив погоды >> Австрия >> Санкт Радегунд бай Грац


ПОГОДА в Санкт Радегунд бай Грац

  • Прогноз погоды в Санкт Радегунд бай Грац
  • Монитор погоды в Санкт Радегунд бай Грац

АРХИВ ПОГОДЫ в Санкт Радегунд бай Грац

Время (UTC), дата Ветер
(напр.,м/с)
 
Видим.   Явления Облачность Т
(С)
Тd
(С)
f
(%)
Тe
(С)
Тes
(С)
Комфортность P
(гПа)
Po
(гПа)
Тmin
(С)
Tmax
(С)
R
(мм)
R24
(мм)
S
(см)
22 13.06 СЗ 2 н/о н/о +18.3 +11.4 64 +19 +19 1014.2 932.2
23 13.06 СЗ 2 н/о н/о +17.3 +11.1 67 +18 +18 1014.6 932.3
00 14.06 СЗ 2 н/о н/о +18.0 +11.1 64 +19 +19 1014.7 932.6
01 14.06 С 2 н/о н/о +21.3 +13.4 61 +24 +24 комфорт 1013.7 932.6
02 14.06 С 1 н/о н/о +18.8 +12.7 68 +21 +21 комфорт 1015.0 933.1
03 14.06 З 1 н/о н/о +20.6 +13.5 64 +24 +24 комфорт 1014.9 933.5
04 14.06 СЗ 2 н/о н/о +18.4 +13.9 75 +19 +19 1016.3 934.2
05 14.06 СЗ 1 н/о н/о +21.0 +14.4 66 +25 +25 комфорт 1016.0 934.6
06 14.06 СЗ 1 н/о н/о +22.8 +14.6 60 +26 +26 жарко 1016.6 935.7 +17.3 +23.7
07 14.06 Ю 1 н/о н/о +23.2 +15.8 63 +28 +28 душно 1017.5 936.6
08 14.06 Ю 2 н/о н/о +24.7 +16.2 59 +28 +28 душно 1017.1 936.7
09 14.06 Ю 2 н/о н/о +25.8 +16.7 57 +29 +29 душно 1017.0 936.9
10 14.06 Ю 1 н/о н/о +27.3 +16.9 53 +31 +31 душно 1016.7 937.0
11 14.06 ЮЗ 2 н/о н/о +27.4 +16.1 50 +31 +31 душно 1016.8 937.1
12 14.06 Ю 1 н/о н/о +27.9 +16.2 49 +31 +31 душно 1016.5 936.9
13 14.06 Ю 1 н/о н/о +29.5 +16.4 45 +33 +33 душно 1015.7 936.6
14 14.06 ЮВ 2 н/о н/о +30.2 +17.0 45 +34 +34 очень
душно
1015.0 936.2
15 14.06 В 2 н/о н/о +30.0 +16.8 45 +34 +34 очень
душно
1014.8 935.9
16 14.06 ЮВ 2 н/о н/о +29.4 +17.3 48 +33 +33 душно 1014.7 935.7
17 14.06 ЮВ 1 н/о н/о +26.6 +16.0 52 +30 +30 душно 1015.4 935.6
18 14.06 ЮВ 1 н/о н/о +24.8 +17.1 62 +29 +29 душно 1015.9 935.6 +22.4 +30.3
19 14.06 СЗ 2 н/о н/о +22.3 +16.4 69 +27 +27 душно 1016.8 935.8
20 14.06 СЗ 2 н/о н/о +20.9 +16.3 75 +25 +25 комфорт 1017.7 936.2
21 14.06 СЗ 2 н/о н/о +20.5 +16.8 79 +24 +24 комфорт 1017.3 935.8
22 14.06 СЗ 3 н/о н/о +19.7 +15.8 78 +22 +22 комфорт 1017.3 935.5
23 14.06 СЗ 3 н/о н/о +19.1 +15.0 77 +21 +21 комфорт 1017.1 935.2
00 15.06 СЗ 3 н/о н/о +19.2 +14.6 75 +21 +21 комфорт 1016.5 934.6
01 15.06 СЗ 3 н/о н/о +18.8 +14.0 74 +20 +20 1016.2 934.2
02 15.06 СЗ 3 н/о н/о +18.5 +14.3 77 +19 +19 1015.7 933.7
03 15.06 СЗ 2 н/о н/о +18.3 +14.5 79 +19 +19 1015.6 933.6
04 15.06 СЗ 2 н/о н/о +18.5 +15.0 80 +20 +20 1015.3 933.4
05 15.06 штиль 0 н/о н/о +20.2 +16.7 80 +23 +23 комфорт 1014.6 933.2
06 15.06 штиль 0 н/о н/о +21.2 +18.0 82 +25 +25 комфорт 1014.3 933.3 +18.0 +25.5
07 15.06 штиль 0 н/о н/о +22.5 +18.5 78 +28 +28 душно 1014.2 933.5
08 15.06 В 1 н/о н/о +23.5 +20.1 81 +29 +29 душно 1013.5 933.2
09 15.06 ЮВ 2 н/о н/о +25.2 +20.0 73 +31 +31 очень
душно
1013.1 933.3
10 15.06 ЮВ 1 н/о н/о +25.2 +19.6 71 +31 +31 очень
душно
1013.3 933.4
11 15.06 В 2 н/о н/о +27.6 +20.2 64 +34 +34 очень
душно
1012.5 933.3
12 15.06 Ю 1 н/о н/о +27.4 +18.4 58 +32 +32 очень
душно
1012.2 932.9
13 15.06 Ю 1 н/о н/о +26.7 +18.8 62 +32 +32 очень
душно
1012.1 932.7
14 15.06 Ю 1 н/о н/о +26.8 +18.1 59 +31 +31 душно 1011.8 932.4
15 15.06 ЮВ 2 н/о н/о +28.2 +19.2 58 +34 +34 очень
душно
1010.8 931.9
16 15.06 ЮВ 2 н/о н/о +28.2 +19.2 58 +34 +34 очень
душно
1010.1 931.2
17 15.06 В 2 н/о н/о +26.3 +18.7 63 +31 +31 душно 1010.7 931.3
18 15.06 СЗ 2 н/о н/о +23.8 +18.7 73 +28 +28 душно 1011.4 931.3 +21.0 +28.7
19 15.06 СЗ 3 н/о н/о +21.5 +16.1 71 +25 +25 комфорт 1012.1 931.2
20 15.06 СЗ 3 н/о н/о +20.7 +15.7 73 +24 +24 комфорт 1012.6 931.5
21 15.06 СЗ 3 н/о н/о +20.1 +16.0 77 +23 +23 комфорт 1012.7 931.4
22 15.06 СЗ 2 н/о н/о +19.9 +15.6 76 +23 +23 комфорт 1013.2 931.8
23 15.06 СЗ 2 н/о н/о +19.1 +16.0 82 +21 +21 комфорт 1013.4 931.8
00 16.06 СЗ 2 н/о н/о +18.9 +15.4 80 +21 +21 комфорт 1013.1 931.5
01 16.06 СЗ 2 н/о н/о +18.4 +15.9 85 +20 +20 1012.9 931.2
02 16.06 СЗ 3 н/о н/о +18.2 +16.2 88 +19 +19 1012.7 930.9
03 16.06 СЗ 2 н/о н/о +18.0 +16.0 88 +19 +19 1013.0 931.1
04 16.06 СЗ 2 н/о н/о +18.5 +16.3 87 +20 +20 1013.1 931.4
05 16.06 СЗ 2 н/о н/о +19.5 +17.8 90 +22 +22 комфорт 1013.0 931.6
06 16.06 ЮЗ 1 н/о н/о +22.0 +18.4 80 +27 +27 душно 1013.0 932.3 +17.5 +24.1
07 16.06 С 3 н/о н/о +22.3 +16.4 69 +27 +27 душно 1013.4 932.7
08 16.06 С 3 н/о н/о +25.6 +17.5 61 +30 +30 душно 1012.9 933.1
09 16.06 С 1 н/о н/о +24.8 +17.3 63 +29 +29 душно 1013.6 933.5
10 16.06 ЮВ 1 н/о н/о +25.1 +17.6 63 +29 +29 душно 1013.6 933.6
11 16.06 В 2 н/о н/о +26.0 +18.4 63 +31 +31 очень
душно
1013.2 933.5
12 16.06 СЗ 3 н/о н/о +23.9 +16.5 63 +27 +27 жарко 1013.6 933.3
13 16.06 С 3 н/о н/о +18.7 +17.7 94 +20 +20 1015.2 933.4 6
14 16.06 н/о 933.5
15 16.06 слаб. ливневой дождь н/о 933.0
16 16.06 н/о 933.3
17 16.06 н/о 935.2
18 16.06 {ливн. осадки} н/о 934.8 +17.5 +27.8
19 16.06
{13}
н/о 934.6
20 16.06
{16}
н/о 935.4
21 16.06
{16}
н/о 935.7
22 16.06 н/о 936.6
23 16.06 н/о 936.0
00 17.06
{16}
н/о 935.9
01 17.06
{14}
н/о 935.6
02 17.06
{14}
н/о 935.6
03 17.06
{14}
н/о 936.0
04 17.06 н/о 936.5
05 17.06 н/о 936.0
06 17.06
{16}
н/о 936.2
07 17.06 н/о 936.4
08 17.06 н/о 936.7
09 17.06 н/о 936.7
10 17.06 ЮВ 2 н/о н/о +21.9 +15.1 65 +25 +25 комфорт 1017.8 936.6
11 17.06 З 1 н/о н/о +22.4 +14.5 61 +26 +26 жарко 1017.5 936.4
12 17.06 ЮВ 1 н/о н/о +22.4 +14.8 62 +26 +26 жарко 1017.5 936.4
13 17.06 ЮВ 3 н/о н/о +21.6 +14.5 64 +25 +25 комфорт 1017.8 936.5
14 17.06 В 2 н/о н/о +21.5 +14.4 64 +24 +24 комфорт 1017.5 936.2 0.0
15 17.06 В 2 н/о н/о +21.6 +14.5 64 +25 +25 комфорт 1017.2 935.9 0.0
16 17.06 В 1 н/о н/о +21.1 +14.2 65 +24 +24 комфорт 1017.2 935.8
17 17.06 С 1 н/о н/о +20.5 +13.4 64 +24 +24 комфорт 1017.4 935.8
18 17.06 СЗ 1 н/о н/о +19.6 +14.9 74 +23 +23 комфорт 1017.3 935.5 +19.4 +23.6
19 17.06 СЗ 2 н/о н/о +18.2 +14.3 78 +19 +19 1018.0 935.7
20 17.06 СЗ 2 н/о н/о +17.4 +14.3 82 +18 +18 1018.8 936.3
21 17.06 СЗ 2 н/о н/о +17.7 +14.5 82 +18 +18 1018.9 936.4
22 17.06 СЗ 2 н/о н/о +17.7 +14.5 82 +18 +18 1018.4 936.0
23 17.06 СЗ 2 н/о н/о +17.2 +15.2 88 +18 +18 1018.5 936.0
00 18.06 СЗ 1 н/о н/о +17.3 +14.8 85 +18 +18 1018.3 935.8
01 18.06 СЗ 2 н/о н/о +16.7 +14.7 88 +17 +17 1018.0 935.3
02 18.06 СЗ 2 н/о н/о +16.2 +14.8 91 +16 +16 1017.7 934.9
03 18.06 СЗ 2 н/о н/о +16.6 +14.8 89 +17 +17 1017.5 934.9
04 18.06 СЗ 2 н/о н/о +16.8 +14.9 89 +17 +17 1017.5 934.9
05 18.06 С 1 н/о н/о +17.8 +15.8 88 +19 +19 1017.4 935.1
06 18.06 ЮВ 2 н/о н/о +19.5 +16.0 80 +22 +22 комфорт 1017.2 935.4 +16.2 +19.8
07 18.06 ЮВ 2 н/о н/о +19.7 +15.8 78 +22 +22 комфорт 1017.4 935.6
08 18.06 В 1 н/о н/о +22.0 +16.3 70 +26 +26 душно 1016.7 935.6
09 18.06 ЮВ 2 н/о н/о +22.3 +17.0 72 +27 +27 душно 1016.5 935.5
10 18.06 ЮВ 1 н/о н/о +22.9 +16.0 65 +27 +27 душно 1016.0 935.2
11 18.06 В 2 н/о н/о +23.0 +15.6 63 +27 +27 душно 1015.7 934.9
12 18.06 В 1 н/о н/о +24.1 +15.4 58 +27 +27 жарко 1014.8 934.4
13 18.06 штиль 0 н/о н/о +24.0 +14.4 55 +27 +27 жарко 1014.6 934.1
14 18.06 В 1 н/о н/о +24.9 +15.3 55 +28 +28 жарко 1013.7 933.6
15 18.06 ЮВ 3 н/о н/о +24.0 +15.8 60 +27 +27 жарко 1013.6 933.3
16 18.06 ЮВ 2 н/о н/о +22.7 +16.1 66 +27 +27 душно 1013.8 933.1
17 18.06 ЮВ 1 н/о н/о +22.2 +15.8 67 +26 +26 душно 1014.1 933.3
18 18.06 СЗ 1 н/о н/о +20.1 +16.4 79 +24 +24 комфорт 1014.7 933.3 +18.9 +25.8
19 18.06 СЗ 2 н/о н/о +18.6 +15.5 82 +20 +20 1015.4 933.5
20 18.06 СЗ 2 н/о н/о +17.8 +15.5 86 +18 +18 1015.7 933.6
21 18.06 СЗ 2 н/о н/о +17.5 +15.7 89 +18 +18 1015.5 933.3
22 18.06 СЗ 1 н/о н/о +18.1 +16.5 90 +19 +19 1015.3 933.3
23 18.06 СЗ 2 н/о н/о +17.4 +16.0 91 +18 +18 1015.5 933.3
00 19.06 СЗ 2 н/о н/о +16.9 +15.6 92 +17 +17 1015.4 933.0
01 19.06 СЗ 3 н/о н/о +16.0 +14.7 92 +15 +15 1014.9 932.3
02 19.06 СЗ 3 н/о н/о +15.5 +14.2 92 +15 +15 1015.1 932.3
03 19.06 СЗ 3 н/о н/о +15.3 +13.8 91 +15 +15 1014.7 931.9
04 19.06 СЗ 2 н/о н/о +15.6 +14.3 92 +15 +15 1014.5 931.8
05 19.06 штиль 0 н/о н/о +16.9 +15.6 92 +17 +17 1014.0 931.8
06 19.06 В 1 н/о н/о +19.2 +16.5 84 +22 +22 комфорт 1013.3 931.8 +15.2 +20.3
07 19.06 ЮВ 1 н/о н/о +22.0 +17.6 76 +27 +27 душно 1012.6 931.9
08 19.06 Ю 1 н/о н/о +22.1 +16.4 70 +26 +26 душно 1012.5 931.8
09 19.06 Ю 1 н/о н/о +23.2 +16.8 67 +28 +28 душно 1011.9 931.5
10 19.06 ЮВ 1 н/о н/о +24.6 +17.9 66 +29 +29 душно 1011.2 931.3
11 19.06 ЮВ 1 н/о н/о +25.6 +17.5 61 +30 +30 душно 1010.4 930.8
12 19.06 ЮВ 2 н/о н/о +26.4 +17.0 56 +30 +30 душно 1009.8 930.4
13 19.06 ЮВ 2 н/о н/о +25.7 +16.3 56 +29 +29 душно 1009.8 930.2
14 19.06 ЮВ 1 н/о н/о +24.2 +15.5 58 +27 +27 жарко 1010.0 930.0
15 19.06 З 6
{14}
н/о осадки н/о +15.6 +13.6 88 +14 +14 1013.5 930.9 5
16 19.06 З 3 н/о осадки н/о +16.7 +13.6 82 +16 +16 1011.8 929.6 5
17 19.06 СЗ 3 н/о в посл. час осадки н/о +17.4 +13.7 79 +17 +17 1011.8 929.8 0.8
18 19.06 СЗ 1
{14}
н/о в посл. час осадки н/о +16.8 +15.9 94 +18 +18 1012.2 930.1 +15.2 +27.2 10
19 19.06 З 1 н/о н/о +15.8 +14.9 94 +16 +16 1012.0 929.6
20 19.06 С 4 н/о н/о +17.9 +11.9 68 +18 +18 1011.4 929.5
21 19.06 СЗ 3 н/о н/о +18.9 +11.2 61 +20 +20 1011.3 929.7
22 19.06 СЗ 1 н/о н/о +15.9 +12.8 82 +17 +17 1012.4 929.9
23 19.06 штиль 0 н/о н/о +14.8 +12.6 87 +14 +14 1013.1 930.3
00 20.06 СЗ 2 н/о н/о +15.0 +12.3 84 +15 +15 1012.9 930.1
01 20.06 СЗ 2 н/о н/о +15.1 +13.1 88 +15 +15 1012.6 929.9
02 20.06 СЗ 3 н/о н/о +14.7 +12.4 86 +14 +14 1012.5 929.7
03 20.06 СЗ 3 н/о н/о +14.4 +11.5 83 +13 +13 1012.4 929.5
04 20.06 СЗ 3 н/о н/о +14.6 +11.4 81 +14 +14 1012.4 929.5
05 20.06 С 1 н/о н/о +15.7 +13.0 84 +16 +16 1012.3 929.8
06 20.06 штиль 0 н/о н/о +18.9 +14.8 77 +20 +20 1011.5 930.0 +14.2 +19.2
07 20.06 штиль 0 н/о н/о +21.9 +16.7 72 +26 +26 душно 1011.2 930.5
08 20.06 СЗ 6 н/о н/о +22.8 +13.0 54 +26 +26 жарко 1011.4 930.8
09 20.06 С 1 н/о н/о +25.0 +13.8 50 +27 +27 жарко 1010.8 930.9
10 20.06 СЗ 2 н/о н/о +25.8 +15.0 51 +29 +29 душно 1010.8 931.1
11 20.06 ЮВ 1 н/о н/о +24.9 +14.0 51 +27 +27 жарко 1011.0 931.0
12 20.06 ЮВ 2 н/о н/о +25.4 +14.9 52 +28 +28 жарко 1010.5 930.7
13 20.06 штиль 0 н/о н/о +25.6 +14.4 50 +28 +28 жарко 1009.8 930.1
14 20.06 С 2 н/о осадки н/о +21.5 +18.1 81 +26 +26 душно 1011.2 930.5 0.4
15 20.06 СВ 2 н/о в посл. час осадки н/о +24.3 +17.8 67 +28 +28 душно 1010.2 930.3 0.6
16 20.06 СВ 1 н/о н/о +23.0 +17.0 69 +28 +28 душно 1010.6 930.3
17 20.06 СВ 1 н/о н/о +23.3 +15.7 62 +28 +28 душно 1011.0 930.7
18 20.06 СЗ 2 н/о {осадки} н/о +20.2 +16.9 81 +24 +24 комфорт 1012.0 930.8 +18.3 +27.4 0.6
19 20.06 СЗ 2 н/о н/о +19.3 +16.4 83 +22 +22 комфорт 1012.5 931.0
20 20.06 СЗ 3 н/о н/о +18.3 +14.8 80 +19 +19 1013.3 931.5

 

Местоположение метеостанции Санкт Радегунд бай Грац (Австрия): широта 47.17 долгота 15.48 высота над уровнем моря 725 м.

В архиве по умолчанию представлена погода в Санкт Радегунд бай Грац за последнюю неделю. Архивные данные за месяц целиком и за предыдущие месяцы, начиная с января 2011 года, Вы можете получить, выбрав интересующий диапазон дат из раскрывающегося списка и нажав кнопку "Ввод!".


*Определитесь, кто Вы:
робот инопланетянин человек

Внимание! Время в таблицах - всемирное. Для получения местного времени необходимо прибавить поправку, которая равна 1 ч.

Смотрите также архив погоды в соседних городах и на ближайших метеорологических станциях:

Погода на Шёкле (Австрия) (3 км)
Погода в Граце университет (Австрия) (6 км)
Погода в Ласницхёэ (Австрия) (13 км)
Погода в Граце (Австрия) (19 км)
Погода в Брукк-ан-дер-Муре (Австрия) (32 км)
Погода в Кёфлаге (Австрия) (32 км)
Погода в Фишбахе (Австрия) (32 км)
Погода в Капфенберге (Австрия) (34 км)
Погода в Капфенберг аэропорту (Австрия) (35 км)
Погода в Леобене (Австрия) (38 км)

Пояснения к столбцам:

Ветер - указаны скорость ветра в м/с - средняя за 10 мин, порывы в срок и между сроками (в фигурных скобках) и направление, откуда дует ветер: С - северный, СВ - северо-восточный, В - восточный, ЮВ - юго-восточный, Ю - южный, ЮЗ - юго-западный, З - западный, СЗ - северо-западный.
Видимость - горизонтальная дальность видимости в метрах или километрах. При видимости от 1 до 10 км при отсутствии осадков обычно наблюдается дымка, при ухудшении видимости до 1 км и менее - туман. В сухую погоду видимость может ухудшаться дымом, пылью или мглою.
Явления - указаны атмосферные явления, наблюдавшиеся в срок или в последний час перед сроком; фигурными скобками обозначены явления, наблюдавшиеся между сроками (за 1-3 часа до срока); квадратными скобками обозначены град или гололедные отложения с указанием их диаметра в мм.
Облачность - указаны через наклонную черту общая и нижняя облачность в баллах и высота нижней границы облаков в метрах; квадратными скобками обозначены формы облаков: Ci - перистые, Cs - перисто-слоистые, Cc - перисто-кучевые, Ac - высококучевые, As - высокослоистые, Sc - слоисто-кучевые, Ns - слоисто-дождевые, Cu - кучевые, Cb - кучево-дождевые. Подробнее классификацию облаков см. в Атласе облаков (PDF).
T - Температура воздуха - температура, измеренная на высоте 2 м над землей.
Td - Температура точки росы - температура, при понижении до которой содержащийся в воздухе водяной пар достигнет насыщения.
f - Относительная влажность воздуха - влажноcть воздуха, измеренная на высоте 2 м над землей.
Te - Эффективная температура - температура, которую ощущает одетый по сезону человек в тени. Характеристика душности погоды. При расчете учитывается влияние влажности воздуха и скорости ветра на теплоощущения человека.
Tes - Эффективная температура на солнце - температура, которую ощущает человек, с поправкой на солнечный нагрев. Характеристика знойности погоды. Зависит от высоты солнца над горизонтом, облачности и скорости ветра. Ночью, в пасмурную погоду, а также при ветре 12 м/с и более поправка равна нулю.
P - Атмосферное давление - приведенное к уровню моря атмосферное давление.
Po - Атмосферное давление - измеренное на уровне метеостанции атмосферное давление.
Tmin - Минимальная температура - минимум температуры воздуха на высоте 2 м над землей.
Tmax - Максимальная температура - максимум температуры воздуха на высоте 2 м над землей.
R - Количество осадков - Количество выпавших осадков за период времени, мм. При наведении курсора мыши на число - период времени, за который выпало указанное количество осадков.
R24 - Количество осадков - Количество выпавших осадков за 24 часа, мм.
S - Снежный покров - Высота снежного покрова, см. При наведении курсора мыши на число - состояние снежного покрова и степень покрытия местности в баллах.